Time,TemperatureF,DewpointF,PressureIn,WindDirection,WindDirectionDegrees,WindSpeedMPH,WindSpeedGustMPH,Humidity,HourlyPrecipIn,Conditions,Clouds,dailyrainin,SolarRadiationWatts/m^2,SoftwareType,DateUTC
2013-09-27 00:03:00,46.0,41.4,29.85,WNW,286,10.0,14.0,84,0.00,,CLR,0.00,0.00,VWS V14.00,2013-09-27 05:03:00,
2013-09-27 00:08:00,45.6,41.4,29.85,WNW,295,8.0,14.0,85,0.00,,CLR,0.00,0.00,VWS V14.00,2013-09-27 05:08:00,
2013-09-27 00:13:00,45.4,41.2,29.85,WNW,288,11.0,14.0,85,0.00,,CLR,0.00,0.00,VWS V14.00,2013-09-27 05:13:00,
2013-09-27 00:19:00,45.4,41.2,29.85,WNW,290,7.0,14.0,85,0.00,,CLR,0.00,0.00,VWS V14.00,2013-09-27 05:19:00,
2013-09-27 00:24:00,45.3,41.4,29.86,WNW,294,6.0,14.0,86,0.00,,CLR,0.00,0.00,VWS V14.00,2013-09-27 05:24:00,
2013-09-27 00:29:00,45.1,41.2,29.86,WNW,290,5.0,14.0,86,0.00,,CLR,0.00,0.00,VWS V14.00,2013-09-27 05:29:00,
2013-09-27 00:34:00,44.8,40.9,29.86,WNW,291,6.0,7.0,86,0.00,,CLR,0.00,0.00,VWS V14.00,2013-09-27 05:34:00,
2013-09-27 00:39:00,44.6,40.7,29.86,WNW,298,2.0,7.0,86,0.00,,CLR,0.00,0.00,VWS V14.00,2013-09-27 05:39:00,
2013-09-27 00:44:00,44.5,40.6,29.86,WNW,299,0.0,7.0,86,0.00,,CLR,0.00,0.00,VWS V14.00,2013-09-27 05:44:00,
2013-09-27 00:49:00,44.4,40.5,29.86,WNW,299,0.0,7.0,86,0.00,,CLR,0.00,0.00,VWS V14.00,2013-09-27 05:49:00,
2013-09-27 00:54:00,44.2,40.3,29.86,WNW,299,2.0,7.0,86,0.00,,CLR,0.00,0.00,VWS V14.00,2013-09-27 05:54:00,
2013-09-27 00:59:00,44.0,40.4,29.85,NW,310,4.0,7.0,87,0.00,,CLR,0.00,0.00,VWS V14.00,2013-09-27 05:59:00,
2013-09-27 01:04:00,44.0,40.4,29.85,NW,313,4.0,5.0,87,0.00,,CLR,0.00,0.00,VWS V14.00,2013-09-27 06:04:00,
2013-09-27 01:09:00,43.9,40.3,29.85,NW,314,4.0,5.0,87,0.00,,CLR,0.00,0.00,VWS V14.00,2013-09-27 06:09:00,
2013-09-27 01:14:00,44.0,40.7,29.85,NW,315,3.0,5.0,88,0.00,,CLR,0.00,0.00,VWS V14.00,2013-09-27 06:14:00,
2013-09-27 01:19:00,44.2,40.9,29.84,NW,315,3.0,5.0,88,0.00,,CLR,0.00,0.00,VWS V14.00,2013-09-27 06:19:00,
2013-09-27 01:24:00,44.2,40.6,29.85,NW,315,3.0,5.0,87,0.00,,CLR,0.00,0.00,VWS V14.00,2013-09-27 06:24:00,
2013-09-27 01:29:00,44.2,40.6,29.85,NW,325,2.0,7.0,87,0.00,,CLR,0.00,0.00,VWS V14.00,2013-09-27 06:29:00,
2013-09-27 01:34:00,44.3,40.7,29.85,NW,325,0.0,2.0,87,0.00,,CLR,0.00,0.00,VWS V14.00,2013-09-27 06:34:00,
2013-09-27 01:39:00,44.3,40.7,29.84,NW,325,0.0,2.0,87,0.00,,CLR,0.00,0.00,VWS V14.00,2013-09-27 06:39:00,
2013-09-27 01:44:00,44.2,40.6,29.84,NW,325,0.0,2.0,87,0.00,,CLR,0.00,0.00,VWS V14.00,2013-09-27 06:44:00,
2013-09-27 01:49:00,44.2,40.6,29.85,NW,325,0.0,2.0,87,0.00,,CLR,0.00,0.00,VWS V14.00,2013-09-27 06:49:00,
2013-09-27 01:54:00,44.2,40.6,29.85,NW,325,1.0,2.0,87,0.00,,CLR,0.00,0.00,VWS V14.00,2013-09-27 06:54:00,
2013-09-27 01:59:00,43.9,40.3,29.85,NW,325,2.0,3.0,87,0.00,,CLR,0.00,0.00,VWS V14.00,2013-09-27 06:59:00,
2013-09-27 02:04:00,43.4,39.8,29.85,NW,325,3.0,5.0,87,0.00,,CLR,0.00,0.00,VWS V14.00,2013-09-27 07:04:00,
2013-09-27 02:09:00,43.1,39.8,29.85,NW,325,4.0,5.0,88,0.00,,CLR,0.00,0.00,VWS V14.00,2013-09-27 07:09:00,
2013-09-27 02:14:00,43.3,40.3,29.85,NW,325,5.0,6.0,89,0.00,,CLR,0.00,0.00,VWS V14.00,2013-09-27 07:14:00,
2013-09-27 02:19:00,43.3,40.3,29.85,NW,317,6.0,7.0,89,0.00,,CLR,0.00,0.00,VWS V14.00,2013-09-27 07:19:00,
2013-09-27 02:24:00,43.1,40.1,29.85,NW,317,4.0,7.0,89,0.00,,CLR,0.00,0.00,VWS V14.00,2013-09-27 07:24:00,
2013-09-27 02:29:00,42.7,39.7,29.85,NW,309,7.0,7.0,89,0.00,,CLR,0.00,0.00,VWS V14.00,2013-09-27 07:29:00,
2013-09-27 02:34:00,42.5,39.8,29.84,NW,323,10.0,11.0,90,0.00,,CLR,0.00,0.00,VWS V14.00,2013-09-27 07:34:00,
2013-09-27 02:40:00,42.8,40.1,29.82,NNW,332,12.0,15.0,90,0.00,,CLR,0.00,0.00,VWS V14.00,2013-09-27 07:40:00,
2013-09-27 02:45:00,42.7,40.0,29.81,NNW,331,13.0,16.0,90,0.00,,CLR,0.00,0.00,VWS V14.00,2013-09-27 07:45:00,
2013-09-27 02:50:00,42.4,40.0,29.81,NW,310,13.0,17.0,91,0.00,,CLR,0.00,0.00,VWS V14.00,2013-09-27 07:50:00,
2013-09-27 02:55:00,42.8,40.6,29.81,NW,323,11.0,18.0,92,0.00,,CLR,0.00,0.00,VWS V14.00,2013-09-27 07:55:00,
2013-09-27 03:00:00,43.8,41.3,29.80,NNW,329,9.0,11.0,91,0.00,,CLR,0.00,0.00,VWS V14.00,2013-09-27 08:00:00,
2013-09-27 03:05:00,44.7,42.0,29.80,NW,323,7.0,12.0,90,0.00,,CLR,0.00,0.00,VWS V14.00,2013-09-27 08:05:00,
2013-09-27 03:10:00,45.3,42.3,29.80,NW,326,7.0,12.0,89,0.00,,CLR,0.00,0.00,VWS V14.00,2013-09-27 08:10:00,
2013-09-27 03:15:00,45.6,42.3,29.81,NW,317,7.0,12.0,88,0.00,,CLR,0.00,0.00,VWS V14.00,2013-09-27 08:15:00,
2013-09-27 03:20:00,46.0,42.3,29.81,NW,311,7.0,12.0,87,0.00,,CLR,0.00,0.00,VWS V14.00,2013-09-27 08:20:00,
2013-09-27 03:25:00,46.0,42.0,29.81,NW,317,7.0,12.0,86,0.00,,CLR,0.00,0.00,VWS V14.00,2013-09-27 08:25:00,
2013-09-27 03:30:00,46.1,42.2,29.81,NW,321,9.0,10.0,86,0.00,,CLR,0.00,0.00,VWS V14.00,2013-09-27 08:30:00,
2013-09-27 03:35:00,46.1,41.8,29.81,NW,321,8.0,12.0,85,0.00,,OVC110,0.00,0.00,VWS V14.00,2013-09-27 08:35:00,
2013-09-27 03:40:00,46.1,42.2,29.80,NW,323,9.0,12.0,86,0.00,,OVC110,0.00,0.00,VWS V14.00,2013-09-27 08:40:00,
2013-09-27 03:45:00,46.1,42.2,29.80,NW,324,11.0,14.0,86,0.00,,OVC110,0.00,0.00,VWS V14.00,2013-09-27 08:45:00,
2013-09-27 03:50:00,46.2,42.2,29.80,NW,325,6.0,14.0,86,0.00,,OVC110,0.00,0.00,VWS V14.00,2013-09-27 08:50:00,
2013-09-27 03:55:00,46.3,42.3,29.80,NW,315,6.0,14.0,86,0.00,,OVC110,0.00,0.00,VWS V14.00,2013-09-27 08:55:00,
2013-09-27 04:00:00,46.3,42.3,29.81,NW,306,6.0,6.0,86,0.00,,OVC110,0.00,0.00,VWS V14.00,2013-09-27 09:00:00,
2013-09-27 04:05:00,46.3,42.3,29.81,NW,306,2.0,6.0,86,0.00,,OVC110,0.00,0.00,VWS V14.00,2013-09-27 09:05:00,
2013-09-27 04:10:00,46.3,42.3,29.81,NW,308,3.0,6.0,86,0.00,,OVC110,0.00,0.00,VWS V14.00,2013-09-27 09:10:00,
2013-09-27 04:15:00,46.2,42.2,29.81,NW,309,1.0,6.0,86,0.00,,OVC110,0.00,0.00,VWS V14.00,2013-09-27 09:15:00,
2013-09-27 04:20:00,46.2,42.2,29.81,NW,319,0.0,6.0,86,0.00,,OVC110,0.00,0.00,VWS V14.00,2013-09-27 09:20:00,
2013-09-27 04:25:00,46.2,42.5,29.81,NW,319,3.0,6.0,87,0.00,,OVC110,0.00,0.00,VWS V14.00,2013-09-27 09:25:00,
2013-09-27 04:30:00,46.2,42.5,29.81,North,355,3.0,5.0,87,0.00,,OVC110,0.00,0.00,VWS V14.00,2013-09-27 09:30:00,
2013-09-27 04:35:00,46.3,42.7,29.82,NNW,344,3.0,7.0,87,0.00,,OVC110,0.00,0.00,VWS V14.00,2013-09-27 09:35:00,
2013-09-27 04:40:00,46.4,42.5,29.80,North,355,11.0,12.0,86,0.00,,OVC110,0.00,0.00,VWS V14.00,2013-09-27 09:40:00,
2013-09-27 04:46:00,46.4,42.1,29.81,NNW,346,7.0,12.0,85,0.00,,OVC070,0.00,0.00,VWS V14.00,2013-09-27 09:46:00,
2013-09-27 04:51:00,46.5,42.2,29.81,NNW,329,5.0,12.0,85,0.00,,OVC070,0.00,0.00,VWS V14.00,2013-09-27 09:51:00,
2013-09-27 04:56:00,46.5,42.2,29.81,NNW,333,6.0,12.0,85,0.00,,OVC070,0.00,0.00,VWS V14.00,2013-09-27 09:56:00,
2013-09-27 05:01:00,46.4,42.1,29.81,NNW,337,5.0,9.0,85,0.00,,OVC070,0.00,0.00,VWS V14.00,2013-09-27 10:01:00,
2013-09-27 05:06:00,46.3,42.0,29.81,NNW,334,5.0,9.0,85,0.00,,OVC070,0.00,0.00,VWS V14.00,2013-09-27 10:06:00,
2013-09-27 05:11:00,46.3,42.0,29.81,NNW,333,4.0,9.0,85,0.00,,OVC070,0.00,0.00,VWS V14.00,2013-09-27 10:11:00,
2013-09-27 05:16:00,46.4,42.1,29.81,NNW,334,6.0,9.0,85,0.00,,OVC070,0.00,0.00,VWS V14.00,2013-09-27 10:16:00,
2013-09-27 05:21:00,46.4,42.1,29.81,NNW,339,4.0,9.0,85,0.00,,OVC070,0.00,0.00,VWS V14.00,2013-09-27 10:21:00,
2013-09-27 05:26:00,46.4,42.5,29.82,NNW,340,3.0,9.0,86,0.00,,OVC070,0.00,0.00,VWS V14.00,2013-09-27 10:26:00,
2013-09-27 05:31:00,46.5,42.2,29.82,NNW,341,5.0,5.0,85,0.00,,OVC070,0.00,0.00,VWS V14.00,2013-09-27 10:31:00,
2013-09-27 05:36:00,46.6,42.3,29.83,NNW,341,3.0,5.0,85,0.00,,OVC070,0.00,0.00,VWS V14.00,2013-09-27 10:36:00,
2013-09-27 05:41:00,46.7,42.4,29.83,NNW,341,1.0,5.0,85,0.00,,OVC085,0.00,0.00,VWS V14.00,2013-09-27 10:41:00,
2013-09-27 05:46:00,46.8,42.5,29.83,NNW,341,3.0,5.0,85,0.00,,OVC085,0.00,0.00,VWS V14.00,2013-09-27 10:46:00,
2013-09-27 05:51:00,46.8,42.5,29.83,NNW,341,2.0,5.0,85,0.00,,OVC085,0.00,0.00,VWS V14.00,2013-09-27 10:51:00,
2013-09-27 05:56:00,46.8,42.5,29.83,NNW,341,4.0,5.0,85,0.00,,OVC085,0.00,0.00,VWS V14.00,2013-09-27 10:56:00,
2013-09-27 06:01:00,46.8,42.5,29.84,NNW,341,3.0,4.0,85,0.00,,OVC085,0.00,0.00,VWS V14.00,2013-09-27 11:01:00,
2013-09-27 06:06:00,46.7,42.7,29.83,NW,325,7.0,8.0,86,0.00,,OVC085,0.00,0.00,VWS V14.00,2013-09-27 11:06:00,
2013-09-27 06:11:00,46.5,42.5,29.83,NW,320,3.0,8.0,86,0.00,,OVC085,0.00,0.00,VWS V14.00,2013-09-27 11:11:00,
2013-09-27 06:16:00,46.3,42.7,29.84,NW,315,6.0,8.0,87,0.00,,OVC085,0.00,0.00,VWS V14.00,2013-09-27 11:16:00,
2013-09-27 06:21:00,46.2,42.8,29.85,NW,315,5.0,8.0,88,0.00,,OVC085,0.00,0.00,VWS V14.00,2013-09-27 11:21:00,
2013-09-27 06:26:00,46.2,43.1,29.85,NW,314,5.0,8.0,89,0.00,,OVC085,0.00,0.00,VWS V14.00,2013-09-27 11:26:00,
2013-09-27 06:31:00,46.1,43.0,29.84,NW,313,6.0,7.0,89,0.00,,OVC085,0.00,0.00,VWS V14.00,2013-09-27 11:31:00,
2013-09-27 06:36:00,46.0,43.2,29.86,NW,307,3.0,7.0,90,0.00,,OVC085,0.00,0.00,VWS V14.00,2013-09-27 11:36:00,
2013-09-27 06:41:00,46.0,43.2,29.85,NW,307,4.0,7.0,90,0.00,,OVC075,0.00,0.00,VWS V14.00,2013-09-27 11:41:00,
2013-09-27 06:46:00,46.1,43.3,29.86,NW,307,4.0,7.0,90,0.00,,OVC075,0.00,0.00,VWS V14.00,2013-09-27 11:46:00,
2013-09-27 06:51:00,46.1,43.3,29.87,NW,307,5.0,7.0,90,0.00,,OVC075,0.00,0.00,VWS V14.00,2013-09-27 11:51:00,
2013-09-27 06:56:00,46.0,43.2,29.86,NW,307,2.0,7.0,90,0.00,,OVC075,0.00,0.00,VWS V14.00,2013-09-27 11:56:00,
2013-09-27 07:01:00,46.0,43.2,29.84,NW,308,5.0,5.0,90,0.00,,OVC075,0.00,0.00,VWS V14.00,2013-09-27 12:01:00,
2013-09-27 07:06:00,46.0,43.2,29.85,NW,308,5.0,6.0,90,0.00,,OVC075,0.00,0.00,VWS V14.00,2013-09-27 12:06:00,
2013-09-27 07:11:00,46.0,43.5,29.85,NW,308,5.0,7.0,91,0.00,,OVC075,0.00,0.00,VWS V14.00,2013-09-27 12:11:00,
2013-09-27 07:16:00,46.0,43.2,29.85,NW,305,6.0,8.0,90,0.00,,OVC075,0.00,0.00,VWS V14.00,2013-09-27 12:16:00,
2013-09-27 07:21:00,46.1,43.3,29.85,NW,309,5.0,8.0,90,0.00,,OVC075,0.00,0.00,VWS V14.00,2013-09-27 12:21:00,
2013-09-27 07:26:00,46.1,43.3,29.85,NW,311,5.0,8.0,90,0.00,,OVC075,0.00,0.00,VWS V14.00,2013-09-27 12:26:00,
2013-09-27 07:31:00,46.2,43.4,29.85,NW,319,7.0,9.0,90,0.00,,OVC070,0.00,0.00,VWS V14.00,2013-09-27 12:31:00,
2013-09-27 07:37:00,46.3,43.5,29.84,NW,325,8.0,10.0,90,0.00,,OVC070,0.00,0.00,VWS V14.00,2013-09-27 12:37:00,
2013-09-27 07:42:00,46.3,43.2,29.84,NNW,340,5.0,11.0,89,0.01,,OVC070,0.01,5.00,VWS V14.00,2013-09-27 12:42:00,
2013-09-27 07:47:00,46.3,43.2,29.84,NNW,333,7.0,11.0,89,0.01,,OVC070,0.01,7.00,VWS V14.00,2013-09-27 12:47:00,
2013-09-27 07:52:00,46.4,43.6,29.84,NNW,338,7.0,11.0,90,0.01,,OVC070,0.01,9.00,VWS V14.00,2013-09-27 12:52:00,
2013-09-27 07:57:00,46.4,43.3,29.85,NNW,331,5.0,11.0,89,0.01,,OVC070,0.01,12.00,VWS V14.00,2013-09-27 12:57:00,
2013-09-27 08:02:00,46.5,43.4,29.84,NNW,342,9.0,10.0,89,0.01,,OVC070,0.01,12.00,VWS V14.00,2013-09-27 13:02:00,
2013-09-27 08:07:00,46.5,43.4,29.84,North,350,9.0,11.0,89,0.01,,OVC070,0.01,14.00,VWS V14.00,2013-09-27 13:07:00,
2013-09-27 08:12:00,46.5,43.4,29.84,NNW,344,9.0,11.0,89,0.01,,OVC070,0.01,14.00,VWS V14.00,2013-09-27 13:12:00,
2013-09-27 08:17:00,46.6,43.5,29.84,NNW,342,8.0,11.0,89,0.01,,OVC070,0.01,14.00,VWS V14.00,2013-09-27 13:17:00,
2013-09-27 08:22:00,46.6,43.5,29.85,NNW,333,7.0,11.0,89,0.01,,OVC070,0.01,16.00,VWS V14.00,2013-09-27 13:22:00,
2013-09-27 08:27:00,46.7,43.6,29.85,NNW,329,6.0,11.0,89,0.01,,OVC070,0.01,18.00,VWS V14.00,2013-09-27 13:27:00,
2013-09-27 08:32:00,46.7,43.6,29.85,NNW,327,7.0,9.0,89,0.01,,OVC060,0.01,25.00,VWS V14.00,2013-09-27 13:32:00,
2013-09-27 08:37:00,46.8,43.7,29.85,NNW,337,7.0,11.0,89,0.01,,OVC060,0.01,30.00,VWS V14.00,2013-09-27 13:37:00,
2013-09-27 08:42:00,46.8,43.7,29.84,NNW,338,9.0,11.0,89,0.01,,OVC060,0.01,33.00,VWS V14.00,2013-09-27 13:42:00,
2013-09-27 08:47:00,46.8,43.7,29.83,NNW,343,10.0,13.0,89,0.01,,OVC060,0.01,44.00,VWS V14.00,2013-09-27 13:47:00,
2013-09-27 08:52:00,46.9,43.8,29.83,North,355,10.0,13.0,89,0.01,,OVC060,0.01,54.00,VWS V14.00,2013-09-27 13:52:00,
2013-09-27 08:57:00,47.1,44.0,29.83,NNW,347,7.0,13.0,89,0.01,,OVC060,0.01,60.00,VWS V14.00,2013-09-27 13:57:00,
2013-09-27 09:02:00,47.2,44.1,29.83,NNW,348,9.0,13.0,89,0.00,,OVC060,0.01,77.00,VWS V14.00,2013-09-27 14:02:00,
2013-09-27 09:07:00,47.4,44.3,29.83,NNW,348,6.0,14.0,89,0.00,,OVC060,0.01,93.00,VWS V14.00,2013-09-27 14:07:00,
2013-09-27 09:12:00,47.6,44.2,29.83,NNW,338,10.0,14.0,88,0.00,,OVC060,0.01,98.00,VWS V14.00,2013-09-27 14:12:00,
2013-09-27 09:17:00,47.8,44.4,29.82,North,5,9.0,14.0,88,0.00,,OVC060,0.01,91.00,VWS V14.00,2013-09-27 14:17:00,
2013-09-27 09:22:00,47.8,44.1,29.82,North,5,10.0,16.0,87,0.00,,OVC060,0.01,77.00,VWS V14.00,2013-09-27 14:22:00,
2013-09-27 09:27:00,48.0,44.3,29.83,NNW,348,10.0,16.0,87,0.00,,OVC060,0.01,121.00,VWS V14.00,2013-09-27 14:27:00,
2013-09-27 09:32:00,48.1,44.4,29.83,NNW,340,8.0,15.0,87,0.00,,OVC060,0.01,121.00,VWS V14.00,2013-09-27 14:32:00,
2013-09-27 09:37:00,48.3,44.6,29.84,NNW,330,8.0,15.0,87,0.00,,OVC060,0.01,113.00,VWS V14.00,2013-09-27 14:37:00,
2013-09-27 09:42:00,48.3,44.3,29.84,NNW,328,8.0,15.0,86,0.00,,OVC060,0.01,105.00,VWS V14.00,2013-09-27 14:42:00,
2013-09-27 09:47:00,48.2,44.2,29.84,NNW,342,13.0,15.0,86,0.00,,OVC060,0.01,148.00,VWS V14.00,2013-09-27 14:47:00,
2013-09-27 09:52:00,48.2,44.2,29.83,NNW,338,14.0,16.0,86,0.00,,OVC060,0.01,113.00,VWS V14.00,2013-09-27 14:52:00,
2013-09-27 09:57:00,48.2,44.2,29.83,NNW,333,13.0,16.0,86,0.00,,OVC060,0.01,121.00,VWS V14.00,2013-09-27 14:57:00,
2013-09-27 10:02:00,48.4,44.4,29.82,North,355,6.0,14.0,86,0.00,,OVC060,0.01,156.00,VWS V14.00,2013-09-27 15:02:00,
2013-09-27 10:08:00,48.4,44.1,29.82,North,355,12.0,15.0,85,0.00,,OVC060,0.01,77.00,VWS V14.00,2013-09-27 15:08:00,
2013-09-27 10:13:00,48.4,44.1,29.83,North,355,7.0,15.0,85,0.00,,OVC060,0.01,90.00,VWS V14.00,2013-09-27 15:13:00,
2013-09-27 10:18:00,48.9,44.9,29.83,NNE,13,12.0,15.0,86,0.00,,OVC060,0.01,144.00,VWS V14.00,2013-09-27 15:18:00,
2013-09-27 10:23:00,49.3,45.0,29.83,North,5,12.0,15.0,85,0.00,,OVC060,0.01,207.00,VWS V14.00,2013-09-27 15:23:00,
2013-09-27 10:28:00,49.7,45.4,29.83,North,350,12.0,15.0,85,0.00,,OVC060,0.01,174.00,VWS V14.00,2013-09-27 15:28:00,
2013-09-27 10:33:00,49.9,45.3,29.83,NNW,338,10.0,13.0,84,0.00,,OVC060,0.01,155.00,VWS V14.00,2013-09-27 15:33:00,
2013-09-27 10:38:00,49.9,45.0,29.83,North,355,8.0,16.0,83,0.00,,OVC060,0.01,160.00,VWS V14.00,2013-09-27 15:38:00,
2013-09-27 10:43:00,49.9,45.0,29.83,North,5,10.0,16.0,83,0.00,,OVC060,0.01,156.00,VWS V14.00,2013-09-27 15:43:00,
2013-09-27 10:48:00,49.9,45.3,29.83,North,355,9.0,16.0,84,0.00,,OVC060,0.01,190.00,VWS V14.00,2013-09-27 15:48:00,
2013-09-27 10:53:00,50.0,45.4,29.84,NNW,344,9.0,16.0,84,0.00,,OVC060,0.01,202.00,VWS V14.00,2013-09-27 15:53:00,
2013-09-27 10:58:00,50.3,45.7,29.85,NNW,340,9.0,16.0,84,0.00,,OVC060,0.01,195.00,VWS V14.00,2013-09-27 15:58:00,
2013-09-27 11:03:00,50.4,45.4,29.84,North,5,8.0,12.0,83,0.00,,OVC060,0.01,197.00,VWS V14.00,2013-09-27 16:03:00,
2013-09-27 11:08:00,50.6,46.0,29.84,North,355,4.0,12.0,84,0.00,,OVC060,0.01,195.00,VWS V14.00,2013-09-27 16:08:00,
2013-09-27 11:13:00,50.7,45.7,29.84,NNW,346,4.0,12.0,83,0.00,,OVC060,0.01,195.00,VWS V14.00,2013-09-27 16:13:00,
2013-09-27 11:18:00,50.8,46.2,29.84,North,5,7.0,12.0,84,0.00,,OVC060,0.01,204.00,VWS V14.00,2013-09-27 16:18:00,
2013-09-27 11:23:00,51.0,46.0,29.84,NNW,348,7.0,12.0,83,0.00,,OVC060,0.01,185.00,VWS V14.00,2013-09-27 16:23:00,
2013-09-27 11:28:00,51.2,45.9,29.84,North,355,7.0,13.0,82,0.00,,OVC060,0.01,156.00,VWS V14.00,2013-09-27 16:28:00,
2013-09-27 11:33:00,51.0,45.7,29.83,NNW,341,6.0,12.0,82,0.00,,OVC060,0.01,169.00,VWS V14.00,2013-09-27 16:33:00,
2013-09-27 11:38:00,51.1,46.1,29.84,North,360,8.0,12.0,83,0.00,,OVC060,0.01,188.00,VWS V14.00,2013-09-27 16:38:00,
2013-09-27 11:43:00,51.3,46.0,29.84,North,5,6.0,12.0,82,0.00,,OVC060,0.01,202.00,VWS V14.00,2013-09-27 16:43:00,
2013-09-27 11:48:00,51.6,46.3,29.83,North,349,6.0,12.0,82,0.00,,OVC060,0.01,258.00,VWS V14.00,2013-09-27 16:48:00,
2013-09-27 11:53:00,52.0,46.4,29.84,NNW,330,7.0,13.0,81,0.00,,OVC060,0.01,236.00,VWS V14.00,2013-09-27 16:53:00,
2013-09-27 11:58:00,52.1,46.1,29.84,NNW,345,9.0,14.0,80,0.00,,OVC060,0.01,209.00,VWS V14.00,2013-09-27 16:58:00,
2013-09-27 12:03:00,52.0,46.4,29.84,North,360,9.0,11.0,81,0.00,,OVC060,0.01,206.00,VWS V14.00,2013-09-27 17:03:00,
2013-09-27 12:08:00,52.1,46.1,29.84,North,355,9.0,11.0,80,0.00,,OVC060,0.01,156.00,VWS V14.00,2013-09-27 17:08:00,
2013-09-27 12:13:00,52.1,46.1,29.84,North,349,6.0,12.0,80,0.00,,OVC060,0.01,192.00,VWS V14.00,2013-09-27 17:13:00,
2013-09-27 12:18:00,52.0,46.0,29.84,NW,325,8.0,14.0,80,0.00,,OVC060,0.01,172.00,VWS V14.00,2013-09-27 17:18:00,
2013-09-27 12:23:00,51.9,46.3,29.83,NW,314,9.0,14.0,81,0.00,,OVC060,0.01,169.00,VWS V14.00,2013-09-27 17:23:00,
2013-09-27 12:27:00,51.7,46.1,29.83,NW,317,9.0,14.0,81,0.00,,OVC060,0.01,207.00,VWS V14.00,2013-09-27 17:27:00,
2013-09-27 12:32:00,51.9,46.6,29.83,NW,314,8.0,10.0,82,0.00,,OVC060,0.01,248.00,VWS V14.00,2013-09-27 17:32:00,
2013-09-27 12:37:00,52.3,46.3,29.83,NW,324,7.0,12.0,80,0.00,,OVC060,0.01,260.00,VWS V14.00,2013-09-27 17:37:00,
2013-09-27 12:42:00,52.3,46.3,29.83,NNW,332,8.0,13.0,80,0.00,,OVC060,0.01,243.00,VWS V14.00,2013-09-27 17:42:00,
2013-09-27 12:47:00,52.4,46.4,29.82,North,350,7.0,13.0,80,0.00,,OVC060,0.01,204.00,VWS V14.00,2013-09-27 17:47:00,
2013-09-27 12:52:00,52.5,46.5,29.82,North,5,11.0,16.0,80,0.00,,OVC060,0.01,216.00,VWS V14.00,2013-09-27 17:52:00,
2013-09-27 12:58:00,52.8,47.1,29.82,NNW,329,7.0,16.0,81,0.00,,OVC060,0.01,223.00,VWS V14.00,2013-09-27 17:58:00,
2013-09-27 13:03:00,53.0,47.3,29.82,NNW,344,11.0,13.0,81,0.00,,OVC060,0.01,272.00,VWS V14.00,2013-09-27 18:03:00,
2013-09-27 13:08:00,53.2,46.5,29.82,NW,323,11.0,13.0,78,0.00,,OVC060,0.01,397.00,VWS V14.00,2013-09-27 18:08:00,
2013-09-27 13:13:00,53.7,47.0,29.81,North,350,11.0,13.0,78,0.00,,OVC060,0.01,308.00,VWS V14.00,2013-09-27 18:13:00,
2013-09-27 13:18:00,53.8,47.1,29.81,NNW,336,12.0,15.0,78,0.00,,OVC060,0.01,253.00,VWS V14.00,2013-09-27 18:18:00,
2013-09-27 13:23:00,53.8,47.5,29.81,NNW,348,10.0,15.0,79,0.00,,OVC060,0.01,271.00,VWS V14.00,2013-09-27 18:23:00,
2013-09-27 13:28:00,53.7,47.0,29.81,NNW,334,8.0,15.0,78,0.00,,OVC060,0.01,353.00,VWS V14.00,2013-09-27 18:28:00,
2013-09-27 13:33:00,54.2,47.8,29.81,NNW,334,14.0,15.0,79,0.00,,OVC060,0.01,279.00,VWS V14.00,2013-09-27 18:33:00,
2013-09-27 13:38:00,54.0,47.0,29.81,North,355,10.0,15.0,77,0.00,,OVC060,0.01,223.00,VWS V14.00,2013-09-27 18:38:00,
2013-09-27 13:43:00,54.0,47.0,29.81,NW,311,11.0,15.0,77,0.00,,OVC025,0.01,206.00,VWS V14.00,2013-09-27 18:43:00,
2013-09-27 13:48:00,53.7,46.3,29.81,NW,317,11.0,15.0,76,0.00,,OVC025,0.01,142.00,VWS V14.00,2013-09-27 18:48:00,
2013-09-27 13:53:00,53.5,46.5,29.81,NW,320,12.0,15.0,77,0.00,,OVC025,0.01,199.00,VWS V14.00,2013-09-27 18:53:00,
2013-09-27 13:58:00,53.5,46.8,29.81,NW,324,12.0,17.0,78,0.00,,OVC025,0.01,186.00,VWS V14.00,2013-09-27 18:58:00,
2013-09-27 14:03:00,53.4,46.7,29.81,NW,325,9.0,13.0,78,0.00,,OVC025,0.01,135.00,VWS V14.00,2013-09-27 19:03:00,
2013-09-27 14:08:00,53.3,46.6,29.81,NW,319,9.0,14.0,78,0.00,,OVC025,0.01,149.00,VWS V14.00,2013-09-27 19:08:00,
2013-09-27 14:13:00,53.3,46.3,29.81,NW,311,9.0,15.0,77,0.00,,OVC025,0.01,141.00,VWS V14.00,2013-09-27 19:13:00,
2013-09-27 14:18:00,53.3,46.3,29.81,NW,321,9.0,16.0,77,0.00,,OVC025,0.01,179.00,VWS V14.00,2013-09-27 19:18:00,
2013-09-27 14:23:00,53.4,46.4,29.81,NW,315,10.0,16.0,77,0.00,,OVC025,0.01,186.00,VWS V14.00,2013-09-27 19:23:00,
2013-09-27 14:28:00,53.7,46.7,29.81,NNW,346,14.0,16.0,77,0.00,,OVC025,0.01,197.00,VWS V14.00,2013-09-27 19:28:00,
2013-09-27 14:33:00,53.9,46.9,29.81,North,349,13.0,16.0,77,0.00,,OVC070,0.01,192.00,VWS V14.00,2013-09-27 19:33:00,
2013-09-27 14:38:00,54.0,46.6,29.81,NNW,336,13.0,16.0,76,0.00,,OVC070,0.01,227.00,VWS V14.00,2013-09-27 19:38:00,
2013-09-27 14:43:00,54.1,46.7,29.81,NNW,328,13.0,16.0,76,0.00,,OVC070,0.01,178.00,VWS V14.00,2013-09-27 19:43:00,
2013-09-27 14:48:00,54.0,47.0,29.81,NW,326,13.0,16.0,77,0.00,,OVC070,0.01,162.00,VWS V14.00,2013-09-27 19:48:00,
2013-09-27 14:53:00,54.0,46.6,29.81,NNW,342,15.0,16.0,76,0.00,,OVC070,0.01,195.00,VWS V14.00,2013-09-27 19:53:00,
2013-09-27 14:58:00,54.1,46.7,29.80,NNW,333,11.0,17.0,76,0.00,,OVC070,0.01,221.00,VWS V14.00,2013-09-27 19:58:00,
2013-09-27 15:03:00,54.5,47.1,29.80,NW,312,14.0,15.0,76,0.00,,OVC070,0.01,250.00,VWS V14.00,2013-09-27 20:03:00,
2013-09-27 15:08:00,54.6,46.8,29.80,NNW,333,8.0,15.0,75,0.00,,OVC070,0.01,220.00,VWS V14.00,2013-09-27 20:08:00,
2013-09-27 15:13:00,54.6,46.8,29.80,NW,313,9.0,15.0,75,0.00,,OVC070,0.01,185.00,VWS V14.00,2013-09-27 20:13:00,
2013-09-27 15:18:00,54.4,46.7,29.80,NW,312,9.0,18.0,75,0.00,,OVC070,0.01,141.00,VWS V14.00,2013-09-27 20:18:00,
2013-09-27 15:23:00,54.1,46.4,29.80,NW,319,11.0,18.0,75,0.00,,OVC070,0.01,113.00,VWS V14.00,2013-09-27 20:23:00,
2013-09-27 15:28:00,54.1,46.7,29.80,NW,306,8.0,18.0,76,0.00,,OVC070,0.01,109.00,VWS V14.00,2013-09-27 20:28:00,
2013-09-27 15:33:00,53.9,46.5,29.80,NNW,332,9.0,16.0,76,0.00,,OVC065,0.01,118.00,VWS V14.00,2013-09-27 20:33:00,
2013-09-27 15:38:00,53.9,46.9,29.80,NW,321,7.0,16.0,77,0.00,,OVC065,0.01,113.00,VWS V14.00,2013-09-27 20:38:00,
2013-09-27 15:43:00,54.0,46.6,29.80,NNW,334,10.0,16.0,76,0.00,,OVC065,0.01,186.00,VWS V14.00,2013-09-27 20:43:00,
2013-09-27 15:49:00,54.2,46.8,29.80,NNW,327,8.0,16.0,76,0.00,,OVC065,0.01,121.00,VWS V14.00,2013-09-27 20:49:00,
2013-09-27 15:54:00,54.1,46.4,29.80,NW,314,15.0,16.0,75,0.00,,OVC065,0.01,104.00,VWS V14.00,2013-09-27 20:54:00,
2013-09-27 15:59:00,53.8,46.4,29.80,NW,317,12.0,18.0,76,0.00,,OVC065,0.01,114.00,VWS V14.00,2013-09-27 20:59:00,
2013-09-27 16:04:00,53.9,46.5,29.79,NW,306,12.0,14.0,76,0.00,,OVC065,0.01,109.00,VWS V14.00,2013-09-27 21:04:00,
2013-09-27 16:09:00,53.9,46.5,29.80,NW,313,12.0,16.0,76,0.00,,OVC065,0.01,90.00,VWS V14.00,2013-09-27 21:09:00,
2013-09-27 16:14:00,53.8,46.4,29.80,NW,317,10.0,16.0,76,0.00,,OVC065,0.01,65.00,VWS V14.00,2013-09-27 21:14:00,
2013-09-27 16:19:00,53.7,46.3,29.80,NW,324,8.0,16.0,76,0.00,,OVC065,0.01,53.00,VWS V14.00,2013-09-27 21:19:00,
2013-09-27 16:24:00,53.7,46.3,29.81,NW,309,8.0,16.0,76,0.00,,OVC065,0.01,47.00,VWS V14.00,2013-09-27 21:24:00,
2013-09-27 16:29:00,53.7,46.0,29.81,NW,311,12.0,16.0,75,0.00,,OVC065,0.01,49.00,VWS V14.00,2013-09-27 21:29:00,
2013-09-27 16:34:00,53.6,45.9,29.81,NW,314,10.0,12.0,75,0.00,,OVC065,0.01,53.00,VWS V14.00,2013-09-27 21:34:00,
2013-09-27 16:39:00,53.6,45.9,29.81,NNW,329,8.0,12.0,75,0.00,,OVC065,0.01,60.00,VWS V14.00,2013-09-27 21:39:00,
2013-09-27 16:44:00,53.7,46.0,29.81,NW,323,9.0,12.0,75,0.00,,OVC065,0.01,77.00,VWS V14.00,2013-09-27 21:44:00,
2013-09-27 16:49:00,53.8,46.4,29.81,NNW,331,10.0,12.0,76,0.00,,OVC065,0.01,74.00,VWS V14.00,2013-09-27 21:49:00,
2013-09-27 16:54:00,53.9,46.2,29.81,NW,324,7.0,12.0,75,0.00,,OVC065,0.01,62.00,VWS V14.00,2013-09-27 21:54:00,
2013-09-27 16:59:00,53.9,46.5,29.81,NNW,337,9.0,12.0,76,0.00,,OVC065,0.01,51.00,VWS V14.00,2013-09-27 21:59:00,
2013-09-27 17:04:00,53.8,46.1,29.81,NNW,333,7.0,10.0,75,0.00,,OVC065,0.01,54.00,VWS V14.00,2013-09-27 22:04:00,
2013-09-27 17:09:00,53.8,46.1,29.80,NNW,331,9.0,10.0,75,0.00,,OVC065,0.01,63.00,VWS V14.00,2013-09-27 22:09:00,
2013-09-27 17:14:00,53.9,46.2,29.80,NW,325,7.0,10.0,75,0.00,,OVC065,0.01,63.00,VWS V14.00,2013-09-27 22:14:00,
2013-09-27 17:19:00,53.8,45.7,29.80,NNW,329,12.0,13.0,74,0.00,,OVC065,0.01,49.00,VWS V14.00,2013-09-27 22:19:00,
2013-09-27 17:24:00,53.7,46.3,29.80,NNW,336,9.0,13.0,76,0.00,,OVC065,0.01,44.00,VWS V14.00,2013-09-27 22:24:00,
2013-09-27 17:29:00,53.5,46.1,29.80,NW,325,7.0,9.0,76,0.00,,OVC065,0.01,46.00,VWS V14.00,2013-09-27 22:29:00,
2013-09-27 17:34:00,53.4,46.0,29.80,NW,321,7.0,13.0,76,0.00,,OVC065,0.01,40.00,VWS V14.00,2013-09-27 22:34:00,
2013-09-27 17:40:00,53.3,45.9,29.80,NW,319,6.0,13.0,76,0.00,,OVC065,0.01,54.00,VWS V14.00,2013-09-27 22:40:00,
2013-09-27 17:45:00,53.3,46.3,29.81,NW,309,6.0,13.0,77,0.00,,OVC035,0.01,46.00,VWS V14.00,2013-09-27 22:45:00,
2013-09-27 17:50:00,53.3,45.9,29.81,NW,317,8.0,13.0,76,0.00,,OVC035,0.01,47.00,VWS V14.00,2013-09-27 22:50:00,
2013-09-27 17:55:00,53.2,46.2,29.81,NW,314,8.0,13.0,77,0.00,,OVC035,0.01,32.00,VWS V14.00,2013-09-27 22:55:00,
2013-09-27 18:00:00,53.1,46.1,29.81,NW,307,9.0,10.0,77,0.00,,OVC035,0.01,26.00,VWS V14.00,2013-09-27 23:00:00,
2013-09-27 18:05:00,52.9,46.2,29.82,NW,309,5.0,11.0,78,0.00,,OVC035,0.01,14.00,VWS V14.00,2013-09-27 23:05:00,
2013-09-27 18:10:00,52.6,46.0,29.82,WNW,300,6.0,12.0,78,0.00,,OVC035,0.01,11.00,VWS V14.00,2013-09-27 23:10:00,
2013-09-27 18:15:00,52.4,46.1,29.82,WNW,300,8.0,12.0,79,0.00,,OVC035,0.01,7.00,VWS V14.00,2013-09-27 23:15:00,
2013-09-27 18:20:00,52.2,46.2,29.83,WNW,294,7.0,12.0,80,0.00,,OVC035,0.01,5.00,VWS V14.00,2013-09-27 23:20:00,
2013-09-27 18:25:00,52.0,46.4,29.83,WNW,296,10.0,12.0,81,0.00,,OVC035,0.01,0.00,VWS V14.00,2013-09-27 23:25:00,
2013-09-27 18:30:00,51.5,46.5,29.84,West,281,10.0,10.0,83,0.00,,OVC035,0.01,0.00,VWS V14.00,2013-09-27 23:30:00,
2013-09-27 18:35:00,51.0,46.7,29.85,WNW,288,8.0,12.0,85,0.01,,OVC035,0.02,0.00,VWS V14.00,2013-09-27 23:35:00,
2013-09-27 18:40:00,50.5,46.8,29.85,West,278,6.0,12.0,87,0.02,,OVC040,0.03,0.00,VWS V14.00,2013-09-27 23:40:00,
2013-09-27 18:45:00,50.2,46.8,29.85,WNW,284,10.0,12.0,88,0.02,,OVC040,0.03,5.00,VWS V14.00,2013-09-27 23:45:00,
2013-09-27 18:50:00,49.9,46.8,29.85,WNW,290,8.0,12.0,89,0.03,,OVC040,0.04,9.00,VWS V14.00,2013-09-27 23:50:00,
2013-09-27 18:55:00,49.7,46.9,29.85,WNW,286,11.0,13.0,90,0.03,,OVC040,0.04,14.00,VWS V14.00,2013-09-27 23:55:00,
2013-09-27 19:00:00,49.6,46.8,29.85,WNW,291,9.0,12.0,90,0.04,,OVC040,0.05,11.00,VWS V14.00,2013-09-28 00:00:00,
2013-09-27 19:05:00,49.4,46.6,29.84,WNW,294,8.0,13.0,90,0.04,,OVC040,0.05,7.00,VWS V14.00,2013-09-28 00:05:00,
2013-09-27 19:10:00,49.4,46.9,29.85,WNW,293,7.0,13.0,91,0.04,,-RA,0.05,0.00,VWS V14.00,2013-09-28 00:10:00,
2013-09-27 19:15:00,49.2,46.7,29.85,WNW,295,8.0,13.0,91,0.04,,-RA,0.05,0.00,VWS V14.00,2013-09-28 00:15:00,
2013-09-27 19:20:00,49.1,46.9,29.84,NW,304,9.0,13.0,92,0.04,,-RA,0.05,0.00,VWS V14.00,2013-09-28 00:20:00,
2013-09-27 19:25:00,49.0,46.8,29.85,NW,304,12.0,16.0,92,0.05,,-RA,0.06,0.00,VWS V14.00,2013-09-28 00:25:00,
2013-09-27 19:31:00,48.8,46.6,29.85,WNW,287,12.0,14.0,92,0.05,,-RA,0.06,0.00,VWS V14.00,2013-09-28 00:31:00,
2013-09-27 19:37:00,48.7,46.8,29.85,WNW,292,8.0,14.0,93,0.05,,-RA,0.06,0.00,VWS V14.00,2013-09-28 00:37:00,
2013-09-27 19:42:00,48.7,46.8,29.86,WNW,288,10.0,14.0,93,0.05,,-RA,0.06,0.00,VWS V14.00,2013-09-28 00:42:00,
2013-09-27 19:47:00,48.6,46.7,29.86,WNW,297,7.0,14.0,93,0.06,,-RA,0.07,0.00,VWS V14.00,2013-09-28 00:47:00,
2013-09-27 19:52:00,48.5,46.6,29.86,WNW,302,9.0,14.0,93,0.06,,-RA,0.07,0.00,VWS V14.00,2013-09-28 00:52:00,
2013-09-27 19:57:00,48.6,46.7,29.86,NW,313,9.0,14.0,93,0.06,,-RA,0.07,0.00,VWS V14.00,2013-09-28 00:57:00,
2013-09-27 20:02:00,48.5,46.6,29.85,NW,317,6.0,9.0,93,0.02,,-RA,0.07,0.00,VWS V14.00,2013-09-28 01:02:00,
2013-09-27 20:07:00,48.5,46.9,29.85,NW,314,7.0,11.0,94,0.02,,-RA,0.07,0.00,VWS V14.00,2013-09-28 01:07:00,
2013-09-27 20:12:00,48.4,46.8,29.85,NW,315,10.0,11.0,94,0.03,,-RA,0.08,0.00,VWS V14.00,2013-09-28 01:12:00,
2013-09-27 20:17:00,48.4,46.8,29.85,NW,315,9.0,11.0,94,0.03,,-RA,0.08,0.00,VWS V14.00,2013-09-28 01:17:00,
2013-09-27 20:22:00,48.4,46.8,29.85,NW,312,8.0,11.0,94,0.03,,-RA,0.08,0.00,VWS V14.00,2013-09-28 01:22:00,
2013-09-27 20:27:00,48.4,46.8,29.86,NW,311,6.0,11.0,94,0.03,,-RA,0.08,0.00,VWS V14.00,2013-09-28 01:27:00,
2013-09-27 20:32:00,48.4,46.8,29.86,NW,310,4.0,6.0,94,0.03,,-RA,0.09,0.00,VWS V14.00,2013-09-28 01:32:00,
2013-09-27 20:37:00,48.4,46.8,29.87,NW,309,7.0,7.0,94,0.03,,-RA,0.09,0.00,VWS V14.00,2013-09-28 01:37:00,
2013-09-27 20:42:00,48.5,46.9,29.88,WNW,288,7.0,8.0,94,0.04,,-RA,0.10,0.00,VWS V14.00,2013-09-28 01:42:00,
2013-09-27 20:47:00,48.5,46.9,29.88,WNW,284,7.0,8.0,94,0.04,,-RA,0.10,0.00,VWS V14.00,2013-09-28 01:47:00,
2013-09-27 20:52:00,48.2,46.6,29.88,WNW,286,9.0,13.0,94,0.05,,-RA,0.11,0.00,VWS V14.00,2013-09-28 01:52:00,
2013-09-27 20:57:00,48.0,46.4,29.88,WNW,290,7.0,14.0,94,0.06,,-RA,0.12,0.00,VWS V14.00,2013-09-28 01:57:00,
2013-09-27 21:02:00,47.8,46.2,29.87,NW,307,12.0,15.0,94,0.06,,-RA,0.13,0.00,VWS V14.00,2013-09-28 02:02:00,
2013-09-27 21:07:00,47.7,46.1,29.87,WNW,296,9.0,15.0,94,0.06,,-RA,0.13,0.00,VWS V14.00,2013-09-28 02:07:00,
2013-09-27 21:12:00,47.6,46.0,29.87,WNW,295,10.0,15.0,94,0.07,,-RA,0.14,0.00,VWS V14.00,2013-09-28 02:12:00,
2013-09-27 21:17:00,47.5,46.1,29.88,WNW,296,6.0,15.0,95,0.08,,-RA,0.15,0.00,VWS V14.00,2013-09-28 02:17:00,
2013-09-27 21:22:00,47.4,46.0,29.87,WNW,297,7.0,15.0,95,0.09,,-RA,0.16,0.00,VWS V14.00,2013-09-28 02:22:00,
2013-09-27 21:27:00,47.2,45.8,29.87,WNW,298,8.0,15.0,95,0.09,,-RA,0.16,0.00,VWS V14.00,2013-09-28 02:27:00,
2013-09-27 21:32:00,47.2,45.8,29.86,NW,304,7.0,8.0,95,0.09,,-RA,0.17,0.00,VWS V14.00,2013-09-28 02:32:00,
2013-09-27 21:37:00,47.1,45.7,29.86,WNW,299,6.0,8.0,95,0.09,,-RA,0.17,0.00,VWS V14.00,2013-09-28 02:37:00,
2013-09-27 21:42:00,47.0,45.7,29.86,NW,304,7.0,9.0,95,0.09,,-RA,0.17,0.00,VWS V14.00,2013-09-28 02:42:00,
2013-09-27 21:47:00,47.0,45.7,29.85,NW,319,10.0,10.0,95,0.10,,-RA,0.18,0.00,VWS V14.00,2013-09-28 02:47:00,
2013-09-27 21:52:00,46.9,45.5,29.85,NW,317,7.0,12.0,95,0.10,,-RA,0.18,0.00,VWS V14.00,2013-09-28 02:52:00,
2013-09-27 21:57:00,46.9,45.5,29.86,NW,313,7.0,12.0,95,0.10,,-RA,0.18,0.00,VWS V14.00,2013-09-28 02:57:00,
2013-09-27 22:02:00,46.9,45.5,29.86,NW,309,8.0,10.0,95,0.07,,-RA,0.19,0.00,VWS V14.00,2013-09-28 03:02:00,
2013-09-27 22:07:00,46.9,45.5,29.86,WNW,302,7.0,10.0,95,0.07,,-RA,0.19,0.00,VWS V14.00,2013-09-28 03:07:00,
2013-09-27 22:12:00,46.9,45.5,29.86,NW,308,8.0,11.0,95,0.07,,-RA,0.19,0.00,VWS V14.00,2013-09-28 03:12:00,
2013-09-27 22:17:00,46.9,45.5,29.86,NW,305,6.0,11.0,95,0.07,,-RA,0.19,0.00,VWS V14.00,2013-09-28 03:17:00,
2013-09-27 22:22:00,46.9,45.5,29.87,WNW,303,5.0,11.0,95,0.07,,-RA,0.19,0.00,VWS V14.00,2013-09-28 03:22:00,
2013-09-27 22:27:00,46.9,45.5,29.87,WNW,298,6.0,11.0,95,0.07,,-RA,0.19,0.00,VWS V14.00,2013-09-28 03:27:00,
2013-09-27 22:33:00,47.0,45.7,29.88,WNW,297,5.0,7.0,95,0.03,,-RA,0.19,0.00,VWS V14.00,2013-09-28 03:33:00,
2013-09-27 22:38:00,46.9,45.5,29.89,WNW,297,5.0,7.0,95,0.03,,-RA,0.19,0.00,VWS V14.00,2013-09-28 03:38:00,
2013-09-27 22:43:00,46.9,45.5,29.88,WNW,297,5.0,7.0,95,0.03,,-RA,0.19,0.00,VWS V14.00,2013-09-28 03:43:00,
2013-09-27 22:48:00,46.9,45.5,29.87,WNW,297,4.0,7.0,95,0.04,,-RA,0.20,0.00,VWS V14.00,2013-09-28 03:48:00,
2013-09-27 22:53:00,46.9,45.5,29.87,WNW,298,6.0,7.0,95,0.04,,-RA,0.20,0.00,VWS V14.00,2013-09-28 03:53:00,
2013-09-27 22:58:00,46.8,45.5,29.87,WNW,297,6.0,7.0,95,0.05,,-RA,0.21,0.00,VWS V14.00,2013-09-28 03:58:00,
2013-09-27 23:01:00,46.8,45.5,29.87,WNW,297,4.0,7.0,95,0.03,,-RA,0.21,0.00,VWS V14.00,2013-09-28 04:01:00,
2013-09-27 23:02:00,46.8,45.5,29.87,WNW,296,4.0,7.0,95,0.03,,-RA,0.21,0.00,VWS V14.00,2013-09-28 04:02:00,
2013-09-27 23:03:00,46.8,45.5,29.87,WNW,296,5.0,7.0,95,0.03,,-RA,0.21,0.00,VWS V14.00,2013-09-28 04:03:00,
2013-09-27 23:04:00,46.8,45.5,29.87,WNW,296,4.0,7.0,95,0.03,,-RA,0.21,0.00,VWS V14.00,2013-09-28 04:04:00,
2013-09-27 23:09:00,46.8,45.5,29.87,WNW,296,4.0,7.0,95,0.03,,-RA,0.21,0.00,VWS V14.00,2013-09-28 04:09:00,
2013-09-27 23:11:00,46.8,45.5,29.87,WNW,297,3.0,7.0,95,0.04,,-RA,0.22,0.00,VWS V14.00,2013-09-28 04:11:00,
2013-09-27 23:16:00,46.7,45.3,29.87,WNW,297,5.0,7.0,95,0.04,,-RA,0.22,0.00,VWS V14.00,2013-09-28 04:16:00,
2013-09-27 23:21:00,46.7,45.3,29.86,WNW,302,6.0,8.0,95,0.04,,-RA,0.22,0.00,VWS V14.00,2013-09-28 04:21:00,
2013-09-27 23:26:00,46.7,45.3,29.86,WNW,302,5.0,8.0,95,0.05,,-RA,0.23,0.00,VWS V14.00,2013-09-28 04:26:00,
2013-09-27 23:31:00,46.6,45.2,29.86,WNW,302,6.0,6.0,95,0.04,,-RA,0.23,0.00,VWS V14.00,2013-09-28 04:31:00,
2013-09-27 23:36:00,46.6,45.2,29.85,WNW,302,4.0,7.0,95,0.04,,-RA,0.23,0.00,VWS V14.00,2013-09-28 04:36:00,
2013-09-27 23:41:00,46.5,45.2,29.85,WNW,302,2.0,7.0,95,0.04,,-RA,0.23,0.00,VWS V14.00,2013-09-28 04:41:00,
2013-09-27 23:46:00,46.5,45.2,29.85,WNW,302,4.0,7.0,95,0.04,,-RA,0.23,0.00,VWS V14.00,2013-09-28 04:46:00,
2013-09-27 23:51:00,46.5,45.2,29.85,WNW,302,1.0,7.0,95,0.04,,-RA,0.23,0.00,VWS V14.00,2013-09-28 04:51:00,
2013-09-27 23:56:00,46.4,45.0,29.84,WNW,302,3.0,7.0,95,0.04,,-RA,0.23,0.00,VWS V14.00,2013-09-28 04:56:00,